45P/Honda-Mrkos-Pajdusakova (1995)

Japanese version
Home page
Total 6,336 html files since Dec. 4, 1995
Updated on August 26, 2006

---------------------------------------------------------------------

* Profile

* Orbital Elements

  by Kenji Muraoka,
  from 166 observations  1980 May 6 to 1996 Apr. 20,
  mean residual is  +/- 1.01 arc seconds.

      Epoch  =  1995 Dec. 29.0  TT       JDT = 2450080.5
          T  =  1995 Dec. 25.98453       +/- 0.00015 (m.e.) TT
       Peri. =  326.05346                +/- 0.00033
       Node  =   89.15594                +/- 0.00041   (2000.0)
       Incl. =    4.24839                +/- 0.00022
          q  =    0.5320516              +/- 0.0000003 AU
          e  =    0.8242401              +/- 0.0000001
          a  =    3.0271502              +/- 0.0000007 AU
          n  =    0.18713418             +/- 0.00000006
          P  =    5.267                  +/- 0.0000018  years
         A1  =   +0.064                  +/- 0.007
         A2  =   -0.05809                +/- 0.00029

* Finding Charts

* 1995 Aug. 1 - 1996 Feb. 7
* 1996 Feb. 7 - 1996 May 17

* Magnitudes Graph

        m1 = 16.0 + 5 log d + 30.0 log r  [ ,0]  (             - 1995 Dec. 25)
        m1 = 12.0 + 5 log d + 15.0 log r  [0, ]  (1995 Dec. 25 -             )

---------------------------------------------------------------------

The orbital elements are calculated by Kenji Muraoka.
The charts are made with StellaNavigator Ver.2.0 for Windows (AstroArts / ASCII).
The magnitudes graphs are made with Comet for Windows.

---------------------------------------------------------------------

Copyright(C) 1995-2008 Seiichi Yoshida (comet@aerith.net). All rights reserved.